Regional Weather Roundup
Issued by NWS

Home | Current Version | Previous Version | Text Only | Print | Product List | Glossary On
Versions: 1 2 3 4 5 6 7 8 9 10 11 12 13 14 15 16 17 18 19 20 21 22 23 24 25 26 27 28 29 30 31 32 33 34 35 36 37 38 39 40 41 42 43 44 45 46 47 48 49 50
000
ASUS46 KPQR 060910
RWROR

OREGON REGIONAL WEATHER ROUNDUP
NATIONAL WEATHER SERVICE PORTLAND OR
200 AM PDT WED MAY 06 2015

NOTE: "FAIR" INDICATES FEW OR NO CLOUDS BELOW 12,000 FEET WITH
NO SIGNIFICANT WEATHER AND/OR OBSTRUCTIONS TO VISIBILITY.

ORZ001>013-061000-
NORTHWEST OREGON


CITY           SKY/WX    TMP DP  RH WIND       PRES   REMARKS
ASTORIA        LGT RAIN  47  45  93 E5        30.10F
NEWPORT        CLEAR     41  39  93 SE3       30.16S
PORTLAND       MOCLDY    49  41  74 CALM      30.11F
VANCOUVER WA   MOCLDY    45  39  79 CALM      30.11S
SCAPPOOSE      LGT RAIN  48  42  80 NW9       30.11S
HILLSBORO      LGT RAIN  46  41  82 CALM      30.11S
AURORA         PTCLDY    42  39  89 CALM      30.12F
MCMINNVILLE    PTCLDY    43  39  86 CALM      30.12S
SALEM          PTCLDY    45  39  79 CALM      30.11S
CORVALLIS      CLEAR     41  37  87 W5        30.13F
EUGENE         CLEAR     43  38  82 CALM      30.13S
$$

ORZ021-028-061000-
SOUTHWEST OREGON


CITY           SKY/WX    TMP DP  RH WIND       PRES   REMARKS
NORTH BEND     PTCLDY    46  45  93 SE3       30.16S
BROOKINGS      CLEAR     45  43  93 VRB3      30.06S
ROSEBURG       MOCLDY    50  40  68 N3        30.12F
SEXTON SUMMIT  CLOUDY    35  34  96 MISG      30.04S FOG
MEDFORD        CLEAR     47  36  65 CALM      30.06S
$$

ORZ014>016-041-061000-
COLUMBIA GORGE


CITY           SKY/WX    TMP DP  RH WIND       PRES   REMARKS
TROUTDALE      CLOUDY    49  41  74 CALM      30.10S
THE DALLES     PTCLDY    48  37  65 NW8       30.05F
$$

ORZ029>031-041-044-049-050-061>064-502-503-505>511-061000-
EASTERN OREGON


CITY           SKY/WX    TMP DP  RH WIND       PRES   REMARKS
REDMOND        PTCLDY    35  29  78 NE3       30.03F
BEND           MOCLDY    36  27  69 CALM      30.04S
PRINEVILLE     PTCLDY    37  30  75 N6        30.02F WCI  33
KLAMATH FALLS  CLEAR     34  27  75 CALM      29.99F
LAKEVIEW       CLOUDY    39  21  48 N13       29.99S WCI  32
HERMISTON      CLEAR     44  35  70 SW8       30.01F
PENDLETON      MOCLDY    45  31  58 W6        30.00F
JOHN DAY       MOCLDY    42  31  63 NW10      30.00S
MEACHAM        PTCLDY    29  25  85 CALM      29.99F
LA GRANDE      CLEAR     43  25  49 NW14      29.98S
BAKER CITY     CLEAR     35  27  72 NW9       29.97F WCI  28
BURNS          CLEAR     35  23  61 SW5       29.96S WCI  31
ROME             N/A     46  19  34 NE6       29.91S
ONTARIO        CLEAR     49  25  39 NW14G24   29.91S
$$



USA.gov is the U.S. government's official web portal to all federal, state and local government web resources and services.